{"data":{"norad_id":47292,"epoch":"2026-09-19T04:21:51.391584Z","epoch_age_seconds":132204,"freshness":"FRESH","line1":"1 47292U 20100AL  26262.18184481  .00000387  00000+0  10398-2 0  9990","line2":"2 47292  87.8982 332.0044 0002205  96.6326 263.5053 13.12443104277008","mean_motion":13.12443104,"eccentricity":0.0002205,"inclination_deg":87.8982,"raan_deg":332.0044,"arg_perigee_deg":96.6326,"mean_anomaly_deg":263.5053,"bstar":0.0010398,"rev_number":27700,"period_min":109.71904196161,"perigee_km":1212.0488848816,"apogee_km":1215.3968950931,"semimajor_km":7591.8598899873,"source":"CELESTRAK","updated_at":"2026-09-20T09:00:44.583151Z"}}